Location: Amherst
(42.3800°N, 72.5240°W)
Time: 11:48:52
(UTC-04:00)

ISS - Pass Details

Date: 27 May 2021
Orbit: 417 x 422 km, 51.6° (Epoch: 14 June)

Event Time Altitude Azimuth Distance (km) Brightness Sun altitude
Rises 22:27:47 0° 305° (NW) 2,367 1.4 -18.5°
Reaches altitude 10° 22:29:54 10° 309° (NW) 1,502 0.2 -18.7°
Maximum altitude 22:33:15 64° 31° (NNE) 469 -3.5 -19.0°
Enters shadow 22:33:45 54° 78° (ENE) 514 -3.5 -19.1°
